Location: Daybis Observatory
(33.4273°N, 88.8061°W)
Time: 14:50:03
(UTC-05:00)

Daily predictions for brighter satellites

Satellite Brightness Start Highest point End
(mag) Time Altitude Azimuth Time Altitude Azimuth Time Altitude Azimuth
IUS-9 SRM-1 3.6 20:14:26 10° WSW 20:17:22 39° SSE 20:27:03 10° ESE
USA 234 3.6 20:11:20 10° ENE 20:17:33 44° SE 20:23:43 10° SSW
NOSS 3-2 (C) 3.3 20:12:27 10° SSW 20:18:11 72° ESE 20:24:27 10° NE
Cosmos 909 Rocket 4.4 20:12:08 10° NNW 20:18:37 87° WSW 20:26:17 10° SSE
Cosmos 1570 Rocket 4.0 20:14:34 10° S 20:19:52 71° ESE 20:25:12 10° NNE
Cosmos 1975 4.3 20:17:02 10° NNE 20:20:08 21° ENE 20:23:12 10° SE
Cosmos 1666 4.4 20:17:50 10° NE 20:20:25 17° ENE 20:22:59 10° ESE
Cosmos 2084 3.5 20:16:41 10° SSW 20:21:02 60° ESE 20:25:11 10° NE
Tiangong 2 3.5 20:18:30 10° WNW 20:21:04 22° NNW 20:23:40 10° NE
GPS 2-04 Rocket1 3.3 20:22:58 10° W 20:26:59 50° SSW 20:31:06 10° SE
Cosmos 1812 4.3 20:23:32 10° SSW 20:27:09 40° W 20:30:48 10° N
ATLAS CENTAUR R/B 3.5 20:22:31 10° SSW 20:27:18 74° ESE 20:41:25 10° NE
HJ-1C 4.4 20:26:19 10° S 20:29:36 49° W 20:32:56 10° NNW
CENTAUR R/B 2.8 20:29:18 10° S 20:34:32 38° ESE 20:40:24 10° NE
Cosmos 1743 4.0 20:32:41 10° NNE 20:35:48 23° ENE 20:38:42 11° SE
ATLAS CENTAUR R/B 2.2 20:33:00 10° NW 20:37:35 61° WSW 20:42:20 10° SSE
Cosmos 1814 Rocket 4.4 20:37:09 10° S 20:42:02 42° ESE 20:47:00 10° NNE
Cosmos 2233 Rocket 4.1 20:36:05 10° SSE 20:42:03 56° E 20:48:06 10° NNE
Cosmos 1898 Rocket 4.2 20:37:49 10° N 20:42:45 37° ENE 20:47:11 12° SE
Okean 1 3.6 20:44:06 10° S 20:48:08 75° W 20:52:12 10° N
ATLAS 3B R/B 4.4 20:42:59 10° WSW 20:49:36 38° NW 20:56:02 10° NNE
Resurs 01 Rocket 1.7 20:45:23 10° SSE 20:49:43 64° ENE 20:54:05 10° N
Envisat 4.0 20:46:01 10° S 20:50:52 46° W 20:55:45 10° NNW
H-2A R/B 3.7 20:48:25 11° E 20:51:09 16° ENE 20:54:11 10° NNE
Cosmos 1300 Rocket 4.5 20:47:10 10° NNW 20:51:23 50° W 20:55:32 10° SSW
Meteor 2-4 Rocket 4.3 20:47:01 10° SSE 20:51:49 34° E 20:56:45 10° NNE
SL-24 R/B 4.5 20:51:51 10° S 20:56:43 87° W 21:01:58 10° N
Lacrosse 5 rocket 4.0 20:58:26 10° NNE 20:59:06 10° NNE 20:59:47 10° NE
ARGOS 4.3 20:56:27 15° ESE 20:59:48 28° ENE 21:04:19 10° NNE
Cosmos 1939 Rocket 3.4 20:57:57 10° S 21:02:00 62° W 21:06:07 10° NNW
NOAA 11 4.2 20:58:22 11° SSE 21:03:35 68° ENE 21:09:00 10° N
Cosmos 2322 Rocket 2.5 21:02:53 10° N 21:08:22 52° ENE 21:12:03 20° SE
YAOGAN 6 4.0 21:05:52 10° SSW 21:09:18 37° W 21:12:45 10° NNW
Cosmos 1242 Rocket 2.5 21:09:27 10° N 21:13:04 69° E 21:15:05 24° SSE
SL-16 R/B 2.2 21:12:54 10° NNW 21:18:35 70° ENE 21:22:11 23° SSE
Cosmos 1340 Rocket 3.0 21:18:27 24° SSE 21:20:37 49° E 21:24:34 10° NNE
GPS 2-05 Rocket1 2.6 21:22:43 10° WSW 21:26:00 64° SSE 21:26:55 41° E
Cosmos 540 Rocket 3.7 21:22:41 18° SSE 21:26:09 46° ESE 21:31:06 10° NNE
Spot 2 Rocket 3.8 21:25:08 14° S 21:29:23 66° W 21:34:23 10° NNW
Cosmos 2034 Rocket 4.4 21:29:18 26° SE 21:32:08 41° E 21:37:50 10° NNE
Meteor 1-13 Rocket 4.4 21:26:53 10° S 21:32:45 82° W 21:38:44 10° N
Cosmos 1464 Rocket 4.0 21:30:00 18° S 21:34:50 63° E 21:41:08 10° NNE
Cosmos 1763 Rocket 4.5 21:32:00 10° SW 21:37:08 49° WNW 21:42:15 10° N
SPOT 5 4.2 21:37:54 20° ENE 21:38:26 20° ENE 21:41:45 10° NNE
USA 245 4.4 21:38:32 26° ENE 21:38:40 26° ENE 21:42:08 10° N
Terra 4.0 21:38:20 11° ENE 21:38:48 11° ENE 21:39:52 10° NE
Cosmos 1937 Rocket 3.4 21:33:51 10° NNW 21:39:00 88° WSW 21:41:34 31° SSE
Cosmos 1455 Rocket 3.0 21:38:46 10° N 21:43:07 67° E 21:44:21 44° SSE
Cosmos 841 Rocket 3.9 21:38:28 10° SSW 21:43:39 64° WNW 21:48:53 10° N
Cosmos 2298 Rocket 3.9 21:39:29 10° NNW 21:44:48 81° ENE 21:46:59 37° SSE
DELTA 2 R/B (1) 3.6 21:45:33 10° SW 21:50:55 52° SSE 21:53:20 30° E
Helios 1A 4.1 21:51:28 28° ENE 21:51:28 28° ENE 21:55:00 10° NNE
Okean 2 4.3 21:52:12 34° ENE 21:52:12 34° ENE 21:55:27 10° NNE
Cosmos 1891 Rocket 4.4 21:48:52 24° S 21:52:50 79° E 21:59:10 10° N
Chunghua 1 4.4 21:49:18 10° W 21:53:01 86° N 21:53:27 69° ENE
USA 32 4.0 21:51:54 10° N 21:57:09 82° W 21:59:24 35° S
Cosmos 2360 Rocket 2.3 21:51:53 10° NNW 21:57:27 58° ENE 21:58:58 44° ESE
BREEZE M DEB (TANK) 3.0 21:50:03 10° NW 21:57:49 52° NNE 21:58:38 43° ENE
Tiangong 2 3.9 21:56:38 10° NW 21:58:32 15° N 22:00:15 11° NE
Atlas Centaur 2 2.9 21:56:45 10° WSW 21:58:46 20° SW 21:58:46 20° SW
USA 234 4.3 21:54:17 10° NNE 22:00:28 46° NW 22:06:38 10° WSW
Cosmos 2219 Rocket 4.0 21:57:00 10° NNE 22:00:29 17° ENE 22:01:38 16° ENE
Shenzhou-11 Module 3.6 21:58:46 10° NW 22:01:05 30° N 22:01:05 30° N
Cosmos 1356 Rocket 4.2 22:05:19 38° ENE 22:05:19 38° ENE 22:08:33 10° NNE
Meteor 2-20 Rocket 4.4 21:58:50 10° N 22:04:59 86° W 22:07:38 37° S
MetOp-A 4.3 22:04:53 36° S 22:07:02 68° WSW 22:12:22 10° NNW
ERS-1 Rocket 2.8 22:07:42 57° SSE 22:08:43 81° ENE 22:13:45 10° N
Cosmos 1544 Rocket 4.1 22:06:14 10° NNW 22:10:34 54° W 22:11:44 41° SW
Helios 1B rocket 3.1 22:16:17 10° NNE 22:19:16 43° NE 22:19:16 43° NE
SJ 16-02 1.5 22:16:22 10° N 22:20:26 63° NE 22:20:26 63° NE
CENTAUR R/B 4.3 22:20:00 10° WSW 22:25:11 31° NW 22:31:02 10° NNE
SPOT 1/Viking Rocket 3.4 22:26:20 69° E 22:26:36 71° ENE 22:31:44 10° N
Cosmos 2333 Rocket 3.6 22:22:35 10° N 22:27:13 25° ENE 22:27:41 25° ENE
H-2A R/B 2.7 22:29:02 40° SW 22:30:07 46° W 22:34:57 10° NNW
COSMOS 2428 3.2 22:24:58 10° N 22:30:22 43° ENE 22:30:38 42° ENE
CZ-4C R/B 3.6 22:26:25 10° NNW 22:33:26 44° NE 22:35:47 36° E
Cosmos 783 Rocket 4.5 22:33:59 71° ENE 22:33:59 71° ENE 22:38:55 10° NNE
Cosmos 1125 Rocket 3.4 22:32:56 10° NNW 22:38:03 76° NE 22:38:03 76° NE
Lacrosse 5 rocket 2.2 22:34:53 10° NW 22:38:05 47° NNW 22:38:05 47° NNW
Cosmos 2297 Rocket 4.0 22:44:25 19° ENE 22:44:25 19° ENE 22:46:23 10° NE
Cosmos 2227 Rocket 3.7 22:47:43 23° ENE 22:47:43 23° ENE 22:50:18 10° NE
Cosmos 1092 Rocket 3.9 22:39:13 10° N 22:45:33 69° E 22:45:54 67° ESE
Nadezhda 4 Rocket 4.0 22:40:44 10° N 22:47:03 77° W 22:48:06 62° SSW
Cosmos 2322 Rocket 4.3 22:48:29 10° WNW 22:51:52 17° W 22:53:52 14° WSW
Cosmos 2322 3.8 22:47:07 10° NNW 22:52:46 63° WSW 22:52:56 63° WSW
Cosmos 2237 Rocket 3.7 22:52:01 10° N 22:56:28 24° ENE 22:56:28 24° ENE
Landsat 7 4.3 22:57:52 58° NW 22:57:52 58° NW 23:01:53 10° NNW
Cosmos 1066 Rocket 4.4 22:58:35 60° W 22:58:50 60° W 23:04:12 10° N
Centaur D-1AR AC-36 4.0 22:47:00 10° WSW 22:58:59 31° SW 22:58:59 31° SW
Cosmos 1025 Rocket 4.5 23:04:19 33° WNW 23:04:19 33° WNW 23:07:55 10° NNW
Cosmos 2279 Rocket 4.2 23:14:02 59° NE 23:14:02 59° NE 23:19:22 10° NNE
Cosmos 2026 Rocket 4.0 23:07:42 10° N 23:13:15 67° NE 23:13:15 67° NE
Terra 2.7 23:17:13 46° NW 23:17:13 46° NW 23:20:39 10° NNW
SPOT 5 4.4 23:17:09 26° WNW 23:17:09 26° WNW 23:20:09 10° NW
Cosmos 2219 4.0 23:16:32 42° W 23:17:34 47° WNW 23:23:07 10° N
Cosmos 1655 Rocket 4.5 23:16:48 10° N 23:22:14 51° NE 23:22:14 51° NE
CZ-2C R/B 3.2 23:32:56 10° N 23:37:37 57° NNW 23:37:37 57° NNW
Mayak 1.6 23:36:44 10° NE 23:37:00 11° NE 23:37:00 11° NE
Cosmos 2360 Rocket 4.4 23:37:46 10° WNW 23:40:45 15° W 23:40:45 15° W
Cosmos 2219 Rocket 3.0 23:39:19 10° NNW 23:43:21 44° NW 23:43:21 44° NW
COSMOS 2455 3.4 23:54:03 55° NNW 23:54:03 55° NNW 23:59:12 10° NNE
